Year,Month,Day,Hour,Minute,Value (Times are PST for temperature in C)
2021,04,15,00,00,7.60
2021,04,15,00,01,7.70
2021,04,15,00,02,7.60
2021,04,15,00,03,7.60
2021,04,15,00,04,7.50
2021,04,15,00,05,7.50
2021,04,15,00,06,7.40
2021,04,15,00,07,7.40
2021,04,15,00,08,7.40
2021,04,15,00,09,7.40
2021,04,15,00,10,7.40
2021,04,15,00,11,7.40
2021,04,15,00,12,7.40
2021,04,15,00,13,7.40
2021,04,15,00,14,7.30
2021,04,15,00,15,7.30
2021,04,15,00,16,7.30
2021,04,15,00,17,7.30
2021,04,15,00,18,7.30
2021,04,15,00,19,7.30
2021,04,15,00,20,7.30
2021,04,15,00,21,7.30
2021,04,15,00,22,7.30
2021,04,15,00,23,7.30
2021,04,15,00,24,7.30
2021,04,15,00,25,7.30
2021,04,15,00,26,7.30
2021,04,15,00,27,7.20
2021,04,15,00,28,7.20
2021,04,15,00,29,7.20
2021,04,15,00,30,7.20
2021,04,15,00,31,7.20
2021,04,15,00,32,7.20
2021,04,15,00,33,7.20
2021,04,15,00,34,7.10
2021,04,15,00,35,7.10
2021,04,15,00,36,7.10
2021,04,15,00,37,7.10
2021,04,15,00,38,7.00
2021,04,15,00,39,7.00
2021,04,15,00,40,6.90
2021,04,15,00,41,6.90
2021,04,15,00,42,6.90
2021,04,15,00,43,6.90
2021,04,15,00,44,6.90
2021,04,15,00,45,6.80
2021,04,15,00,46,6.80
2021,04,15,00,47,6.80
2021,04,15,00,48,6.80
2021,04,15,00,49,6.80
2021,04,15,00,50,6.80
2021,04,15,00,51,6.80
2021,04,15,00,52,6.70
2021,04,15,00,53,6.70
2021,04,15,00,54,6.70
2021,04,15,00,55,6.70
2021,04,15,00,56,6.70
2021,04,15,00,57,6.70
2021,04,15,00,58,6.70
2021,04,15,00,59,6.70
2021,04,15,01,00,6.70
2021,04,15,01,01,6.60
2021,04,15,01,02,6.60
2021,04,15,01,03,6.60
2021,04,15,01,04,6.60
2021,04,15,01,05,6.60
2021,04,15,01,06,6.50
2021,04,15,01,07,6.50
2021,04,15,01,08,6.50
2021,04,15,01,09,6.50
2021,04,15,01,10,6.50
2021,04,15,01,11,6.50
2021,04,15,01,12,6.40
2021,04,15,01,13,6.40
2021,04,15,01,14,6.40
2021,04,15,01,15,6.40
2021,04,15,01,16,6.40
2021,04,15,01,17,6.40
2021,04,15,01,18,6.30
2021,04,15,01,19,6.30
2021,04,15,01,20,6.30
2021,04,15,01,21,6.30
2021,04,15,01,22,6.20
2021,04,15,01,23,6.20
2021,04,15,01,24,6.20
2021,04,15,01,25,6.20
2021,04,15,01,26,6.20
2021,04,15,01,27,6.20
2021,04,15,01,28,6.20
2021,04,15,01,29,6.20
2021,04,15,01,30,6.20
2021,04,15,01,31,6.20
2021,04,15,01,32,6.20
2021,04,15,01,33,6.10
2021,04,15,01,34,6.10
2021,04,15,01,35,6.10
2021,04,15,01,36,6.10
2021,04,15,01,37,6.10
2021,04,15,01,38,6.00
2021,04,15,01,39,6.00
2021,04,15,01,40,5.90
2021,04,15,01,41,5.90
2021,04,15,01,42,5.90
2021,04,15,01,43,5.90
2021,04,15,01,44,5.80
2021,04,15,01,45,5.80
2021,04,15,01,46,5.80
2021,04,15,01,47,5.80
2021,04,15,01,48,5.80
2021,04,15,01,49,5.80
2021,04,15,01,50,5.80
2021,04,15,01,51,5.80
2021,04,15,01,52,5.80
2021,04,15,01,53,5.80
2021,04,15,01,54,5.80
2021,04,15,01,55,5.80
2021,04,15,01,56,5.80
2021,04,15,01,57,5.80
2021,04,15,01,58,5.80
2021,04,15,01,59,5.80
2021,04,15,02,00,5.70
2021,04,15,02,01,5.70
2021,04,15,02,02,5.70
2021,04,15,02,03,5.70
2021,04,15,02,04,5.70
2021,04,15,02,05,5.60
2021,04,15,02,06,5.60
2021,04,15,02,07,5.60
2021,04,15,02,08,5.60
2021,04,15,02,09,5.60
2021,04,15,02,10,5.50
2021,04,15,02,11,5.50
2021,04,15,02,12,5.50
2021,04,15,02,13,5.40
2021,04,15,02,14,5.40
2021,04,15,02,15,5.40
2021,04,15,02,16,5.40
2021,04,15,02,17,5.40
2021,04,15,02,18,5.40
2021,04,15,02,19,5.30
2021,04,15,02,20,5.30
2021,04,15,02,21,5.40
2021,04,15,02,22,5.40
2021,04,15,02,23,5.40
2021,04,15,02,24,5.40
2021,04,15,02,25,5.40
2021,04,15,02,26,5.40
2021,04,15,02,27,5.50
2021,04,15,02,28,5.40
2021,04,15,02,29,5.40
2021,04,15,02,30,5.40
2021,04,15,02,31,5.40
2021,04,15,02,32,5.40
2021,04,15,02,33,5.40
2021,04,15,02,34,5.50
2021,04,15,02,35,5.50
2021,04,15,02,36,5.50
2021,04,15,02,37,5.50
2021,04,15,02,38,5.50
2021,04,15,02,39,5.40
2021,04,15,02,40,5.40
2021,04,15,02,41,5.40
2021,04,15,02,42,5.40
2021,04,15,02,43,5.40
2021,04,15,02,44,5.40
2021,04,15,02,45,5.40
2021,04,15,02,46,5.40
2021,04,15,02,47,5.40
2021,04,15,02,48,5.50
2021,04,15,02,49,5.50
2021,04,15,02,50,5.50
2021,04,15,02,51,5.50
2021,04,15,02,52,5.50
2021,04,15,02,53,5.40
2021,04,15,02,54,5.40
2021,04,15,02,55,5.40
2021,04,15,02,56,5.40
2021,04,15,02,57,5.40
2021,04,15,02,58,5.40
2021,04,15,02,59,5.40
2021,04,15,03,00,5.30
2021,04,15,03,01,5.30
2021,04,15,03,02,5.30
2021,04,15,03,03,5.20
2021,04,15,03,04,5.20
2021,04,15,03,05,5.20
2021,04,15,03,06,5.10
2021,04,15,03,07,5.10
2021,04,15,03,08,5.00
2021,04,15,03,09,5.00
2021,04,15,03,10,5.00
2021,04,15,03,11,4.90
2021,04,15,03,12,4.90
2021,04,15,03,13,4.90
2021,04,15,03,14,4.90
2021,04,15,03,15,4.90
2021,04,15,03,16,4.90
2021,04,15,03,17,5.00
2021,04,15,03,18,5.00
2021,04,15,03,19,5.00
2021,04,15,03,20,5.00
2021,04,15,03,21,5.00
2021,04,15,03,22,5.00
2021,04,15,03,23,5.00
2021,04,15,03,24,5.00
2021,04,15,03,25,5.00
2021,04,15,03,26,4.90
2021,04,15,03,27,4.90
2021,04,15,03,28,4.90
2021,04,15,03,29,4.90
2021,04,15,03,30,4.90
2021,04,15,03,31,4.90
2021,04,15,03,32,4.90
2021,04,15,03,33,4.90
2021,04,15,03,34,4.90
2021,04,15,03,35,4.90
2021,04,15,03,36,4.90
2021,04,15,03,37,4.90
2021,04,15,03,38,4.80
2021,04,15,03,39,4.80
2021,04,15,03,40,4.80
2021,04,15,03,41,4.80
2021,04,15,03,42,4.80
2021,04,15,03,43,4.80
2021,04,15,03,44,4.80
2021,04,15,03,45,4.70
2021,04,15,03,46,4.70
2021,04,15,03,47,4.70
2021,04,15,03,48,4.70
2021,04,15,03,49,4.70
2021,04,15,03,50,4.70
2021,04,15,03,51,4.60
2021,04,15,03,52,4.60
2021,04,15,03,53,4.60
2021,04,15,03,54,4.60
2021,04,15,03,55,4.60
2021,04,15,03,56,4.60
2021,04,15,03,57,4.60
2021,04,15,03,58,4.60
2021,04,15,03,59,4.60
2021,04,15,04,00,4.60
2021,04,15,04,01,4.60
2021,04,15,04,02,4.60
2021,04,15,04,03,4.60
2021,04,15,04,04,4.60
2021,04,15,04,05,4.60
2021,04,15,04,06,4.60
2021,04,15,04,07,4.60
2021,04,15,04,08,4.60
2021,04,15,04,09,4.60
2021,04,15,04,10,4.60
2021,04,15,04,11,4.60
2021,04,15,04,12,4.60
2021,04,15,04,13,4.60
2021,04,15,04,14,4.60
2021,04,15,04,15,4.50
2021,04,15,04,16,4.50
2021,04,15,04,17,4.50
2021,04,15,04,18,4.50
2021,04,15,04,19,4.60
2021,04,15,04,20,4.60
2021,04,15,04,21,4.60
2021,04,15,04,22,4.60
2021,04,15,04,23,4.60
2021,04,15,04,24,4.60
2021,04,15,04,25,4.60
2021,04,15,04,26,4.50
2021,04,15,04,27,4.50
2021,04,15,04,28,4.50
2021,04,15,04,29,4.40
2021,04,15,04,30,4.40
2021,04,15,04,31,4.40
2021,04,15,04,32,4.40
2021,04,15,04,33,4.40
2021,04,15,04,34,4.30
2021,04,15,04,35,4.30
2021,04,15,04,36,4.40
2021,04,15,04,37,4.40
2021,04,15,04,38,4.40
2021,04,15,04,39,4.40
2021,04,15,04,40,4.40
2021,04,15,04,41,4.40
2021,04,15,04,42,4.40
2021,04,15,04,43,4.40
2021,04,15,04,44,4.40
2021,04,15,04,45,4.40
2021,04,15,04,46,4.40
2021,04,15,04,47,4.40
2021,04,15,04,48,4.40
2021,04,15,04,49,4.40
2021,04,15,04,50,4.40
2021,04,15,04,51,4.40
2021,04,15,04,52,4.40
2021,04,15,04,53,4.40
2021,04,15,04,54,4.40
2021,04,15,04,55,4.40
2021,04,15,04,56,4.40
2021,04,15,04,57,4.40
2021,04,15,04,58,4.40
2021,04,15,04,59,4.40
2021,04,15,05,00,4.40
2021,04,15,05,01,4.40
2021,04,15,05,02,4.40
2021,04,15,05,03,4.40
2021,04,15,05,04,4.40
2021,04,15,05,05,4.40
2021,04,15,05,06,4.40
2021,04,15,05,07,4.40
2021,04,15,05,08,4.30
2021,04,15,05,09,4.30
2021,04,15,05,10,4.30
2021,04,15,05,11,4.30
2021,04,15,05,12,4.30
2021,04,15,05,13,4.30
2021,04,15,05,14,4.30
2021,04,15,05,15,4.20
2021,04,15,05,16,4.20
2021,04,15,05,17,4.20
2021,04,15,05,18,4.20
2021,04,15,05,19,4.20
2021,04,15,05,20,4.20
2021,04,15,05,21,4.20
2021,04,15,05,22,4.20
2021,04,15,05,23,4.20
2021,04,15,05,24,4.20
2021,04,15,05,25,4.20
2021,04,15,05,26,4.20
2021,04,15,05,27,4.20
2021,04,15,05,28,4.20
2021,04,15,05,29,4.20
2021,04,15,05,30,4.20
2021,04,15,05,31,4.20
2021,04,15,05,32,4.20
2021,04,15,05,33,4.20
2021,04,15,07,31,4.80
2021,04,15,07,32,4.90
2021,04,15,07,33,4.90
2021,04,15,07,34,4.90
2021,04,15,07,35,5.00
2021,04,15,07,36,5.10
2021,04,15,07,37,5.10
2021,04,15,07,38,5.20
2021,04,15,07,39,5.30
2021,04,15,07,40,5.40
2021,04,15,07,41,5.50
2021,04,15,07,42,5.60
2021,04,15,07,43,5.70
2021,04,15,07,44,5.80
2021,04,15,07,45,5.90
2021,04,15,07,46,6.00
2021,04,15,07,47,6.10
2021,04,15,07,48,6.20
2021,04,15,07,49,6.30
2021,04,15,07,50,6.40
2021,04,15,07,51,6.50
2021,04,15,07,52,6.60
2021,04,15,07,53,6.60
2021,04,15,07,54,6.70
2021,04,15,07,55,6.70
2021,04,15,07,56,6.80
2021,04,15,07,57,6.90
2021,04,15,07,58,7.00
2021,04,15,07,59,7.00
2021,04,15,08,00,7.10
2021,04,15,08,01,7.20
2021,04,15,08,02,7.20
2021,04,15,08,03,7.30
2021,04,15,08,04,7.30
2021,04,15,08,05,7.30
2021,04,15,08,06,7.40
2021,04,15,08,07,7.40
2021,04,15,08,08,7.50
2021,04,15,08,09,7.60
2021,04,15,08,10,7.70
2021,04,15,08,11,7.70
2021,04,15,08,12,7.80
2021,04,15,08,13,7.90
2021,04,15,08,14,8.00
2021,04,15,08,15,8.10
2021,04,15,08,16,8.20
2021,04,15,08,17,8.40
2021,04,15,08,18,8.60
2021,04,15,08,19,8.80
2021,04,15,08,20,8.90
2021,04,15,08,21,9.00
2021,04,15,08,22,9.20
2021,04,15,08,23,9.30
2021,04,15,08,24,9.50
2021,04,15,08,25,9.70
2021,04,15,08,26,9.90
2021,04,15,08,27,10.10
2021,04,15,08,28,10.30
2021,04,15,08,29,10.50
2021,04,15,08,30,10.60
2021,04,15,08,31,10.80
2021,04,15,08,32,11.00
2021,04,15,08,33,11.20
2021,04,15,08,34,11.30
2021,04,15,08,35,11.40
2021,04,15,08,36,11.50
2021,04,15,08,37,11.60
2021,04,15,08,38,11.70
2021,04,15,08,39,11.70
2021,04,15,08,40,11.80
2021,04,15,08,41,11.80
2021,04,15,08,42,11.90
2021,04,15,08,43,12.00
2021,04,15,08,44,12.00
2021,04,15,08,45,12.10
2021,04,15,08,46,12.10
2021,04,15,08,47,12.20
2021,04,15,08,48,12.30
2021,04,15,08,49,12.30
2021,04,15,08,50,12.40
2021,04,15,08,51,12.40
2021,04,15,08,52,12.50
2021,04,15,08,53,12.60
2021,04,15,08,54,12.70
2021,04,15,08,55,12.80
2021,04,15,08,56,12.80
2021,04,15,08,57,12.80
2021,04,15,08,58,12.90
2021,04,15,08,59,12.90
2021,04,15,09,00,13.00
2021,04,15,09,01,13.00
2021,04,15,09,02,13.10
2021,04,15,09,03,13.20
2021,04,15,09,04,13.20
2021,04,15,09,05,13.20
2021,04,15,09,06,13.20
2021,04,15,09,07,13.30
2021,04,15,09,08,13.30
2021,04,15,09,09,13.30
2021,04,15,09,10,13.30
2021,04,15,09,11,13.30
2021,04,15,09,12,13.30
2021,04,15,09,13,13.40
2021,04,15,09,14,13.50
2021,04,15,09,15,13.60
2021,04,15,09,16,13.70
2021,04,15,09,17,13.80
2021,04,15,09,18,13.90
2021,04,15,09,19,14.00
2021,04,15,09,20,14.20
2021,04,15,09,21,14.30
2021,04,15,09,22,14.40
2021,04,15,09,23,14.50
2021,04,15,09,24,14.60
2021,04,15,09,25,14.60
2021,04,15,09,26,14.70
2021,04,15,09,27,14.90
2021,04,15,09,28,14.90
2021,04,15,09,29,14.90
2021,04,15,09,30,15.00
2021,04,15,09,31,15.00
2021,04,15,09,32,15.10
2021,04,15,09,33,15.20
2021,04,15,09,34,15.30
2021,04,15,09,35,15.30
2021,04,15,09,36,15.40
2021,04,15,09,37,15.50
2021,04,15,09,38,15.60
2021,04,15,09,39,15.70
2021,04,15,09,40,15.80
2021,04,15,09,41,15.80
2021,04,15,09,42,15.80
2021,04,15,09,43,15.80
2021,04,15,09,44,15.90
2021,04,15,09,45,15.90
2021,04,15,09,46,16.00
2021,04,15,09,47,16.00
2021,04,15,09,48,16.00
2021,04,15,09,49,16.00
2021,04,15,09,50,16.00
2021,04,15,09,51,15.90
2021,04,15,09,52,15.90
2021,04,15,09,53,16.00
2021,04,15,09,54,16.00
2021,04,15,09,55,16.10
2021,04,15,09,56,16.20
2021,04,15,09,57,16.30
2021,04,15,09,58,16.40
2021,04,15,09,59,16.50
2021,04,15,10,00,16.60
2021,04,15,10,01,16.80
2021,04,15,10,02,16.90
2021,04,15,10,03,16.90
2021,04,15,10,04,17.00
2021,04,15,10,05,17.10
2021,04,15,10,06,17.20
2021,04,15,10,07,17.10
2021,04,15,10,08,17.00
2021,04,15,10,09,16.90
2021,04,15,10,10,16.80
2021,04,15,10,11,16.80
2021,04,15,10,12,16.80
2021,04,15,10,13,16.80
2021,04,15,10,14,16.90
2021,04,15,10,15,17.00
2021,04,15,10,16,17.10
2021,04,15,10,17,17.20
2021,04,15,10,18,17.30
2021,04,15,10,19,17.30
2021,04,15,10,20,17.40
2021,04,15,10,21,17.40
2021,04,15,10,22,17.50
2021,04,15,10,23,17.60
2021,04,15,10,24,17.60
2021,04,15,10,25,17.80
2021,04,15,10,26,18.00
2021,04,15,10,27,18.10
2021,04,15,10,28,18.20
2021,04,15,10,29,18.40
2021,04,15,10,30,18.60
2021,04,15,10,31,18.80
2021,04,15,10,32,18.90
2021,04,15,10,33,19.10
2021,04,15,10,34,19.20
2021,04,15,10,35,19.40
2021,04,15,10,36,19.40
2021,04,15,10,37,19.50
2021,04,15,10,38,19.60
2021,04,15,10,39,19.70
2021,04,15,10,40,19.80
2021,04,15,10,41,19.90
2021,04,15,10,42,19.90
2021,04,15,10,43,20.00
2021,04,15,10,44,20.00
2021,04,15,10,45,20.00
2021,04,15,10,46,19.90
2021,04,15,10,47,19.90
2021,04,15,10,48,19.80
2021,04,15,10,49,19.80
2021,04,15,10,50,19.80
2021,04,15,10,51,19.80
2021,04,15,10,52,19.80
2021,04,15,10,53,19.80
2021,04,15,10,54,19.80
2021,04,15,10,55,19.80
2021,04,15,10,56,19.90
2021,04,15,10,57,20.00
2021,04,15,10,58,20.00
2021,04,15,10,59,20.10
2021,04,15,11,00,20.10
2021,04,15,11,01,20.20
2021,04,15,11,02,20.10
2021,04,15,11,03,20.10
2021,04,15,11,04,20.00
2021,04,15,11,05,19.90
2021,04,15,11,06,20.00
2021,04,15,11,07,19.90
2021,04,15,11,08,19.70
2021,04,15,11,09,19.60
2021,04,15,11,10,19.60
2021,04,15,11,11,19.70
2021,04,15,11,12,19.70
2021,04,15,11,13,19.70
2021,04,15,11,14,19.70
2021,04,15,11,15,19.80
2021,04,15,11,16,19.80
2021,04,15,11,17,19.80
2021,04,15,11,18,19.80
2021,04,15,11,19,19.90
2021,04,15,11,20,19.90
2021,04,15,11,21,19.90
2021,04,15,11,22,20.00
2021,04,15,11,23,20.00
2021,04,15,11,24,19.90
2021,04,15,11,25,19.90
2021,04,15,11,26,19.90
2021,04,15,11,27,20.00
2021,04,15,11,28,20.00
2021,04,15,11,29,19.90
2021,04,15,11,30,19.80
2021,04,15,11,31,19.60
2021,04,15,11,32,19.60
2021,04,15,11,33,19.60
2021,04,15,11,34,19.70
2021,04,15,11,35,19.80
2021,04,15,11,36,19.80
2021,04,15,11,37,19.80
2021,04,15,11,38,19.80
2021,04,15,11,39,19.80
2021,04,15,11,40,19.80
2021,04,15,11,41,19.90
2021,04,15,11,42,20.00
2021,04,15,11,43,19.90
2021,04,15,11,44,19.90
2021,04,15,11,45,19.90
2021,04,15,11,46,20.00
2021,04,15,11,47,20.20
2021,04,15,11,48,20.30
2021,04,15,11,49,20.50
2021,04,15,11,50,20.60
2021,04,15,11,51,20.80
2021,04,15,11,52,20.90
2021,04,15,11,53,21.00
2021,04,15,11,54,20.90
2021,04,15,11,55,20.90
2021,04,15,11,56,20.90
2021,04,15,11,57,20.80
2021,04,15,11,58,20.70
2021,04,15,11,59,20.70
2021,04,15,12,00,20.70
2021,04,15,12,01,20.60
2021,04,15,12,02,20.50
2021,04,15,12,03,20.50
2021,04,15,12,04,20.60
2021,04,15,12,05,20.60
2021,04,15,12,06,20.80
2021,04,15,12,07,20.80
2021,04,15,12,08,21.00
2021,04,15,12,09,21.10
2021,04,15,12,10,21.20
2021,04,15,12,11,21.40
2021,04,15,12,12,21.40
2021,04,15,12,13,21.50
2021,04,15,12,14,21.50
2021,04,15,12,15,21.60
2021,04,15,12,16,21.70
2021,04,15,12,17,21.80
2021,04,15,12,18,21.70
2021,04,15,12,19,21.70
2021,04,15,12,20,21.70
2021,04,15,12,21,21.70
2021,04,15,12,22,21.60
2021,04,15,12,23,21.50
2021,04,15,12,24,21.50
2021,04,15,12,25,21.50
2021,04,15,12,26,21.40
2021,04,15,12,27,21.30
2021,04,15,12,28,21.30
2021,04,15,12,29,21.30
2021,04,15,12,30,21.20
2021,04,15,12,31,21.20
2021,04,15,12,32,21.20
2021,04,15,12,33,21.20
2021,04,15,12,34,21.10
2021,04,15,12,35,21.10
2021,04,15,12,36,21.20
2021,04,15,12,37,21.20
2021,04,15,12,38,21.30
2021,04,15,12,39,21.50
2021,04,15,12,40,21.60
2021,04,15,12,41,21.60
2021,04,15,12,42,21.50
2021,04,15,12,43,21.20
2021,04,15,12,44,21.00
2021,04,15,12,45,21.10
2021,04,15,12,46,21.10
2021,04,15,12,47,21.10
2021,04,15,12,48,21.10
2021,04,15,12,49,21.20
2021,04,15,12,50,21.30
2021,04,15,12,51,21.30
2021,04,15,12,52,21.40
2021,04,15,12,53,21.50
2021,04,15,12,54,21.60
2021,04,15,12,55,21.70
2021,04,15,12,56,21.70
2021,04,15,12,57,21.50
2021,04,15,12,58,21.50
2021,04,15,12,59,21.40
2021,04,15,13,00,21.20
2021,04,15,13,01,21.20
2021,04,15,13,02,21.30
2021,04,15,13,03,21.40
2021,04,15,13,04,21.30
2021,04,15,13,05,21.20
2021,04,15,13,06,21.20
2021,04,15,13,07,21.30
2021,04,15,13,08,21.40
2021,04,15,13,09,21.60
2021,04,15,13,10,21.70
2021,04,15,13,11,21.90
2021,04,15,13,12,22.00
2021,04,15,13,13,22.10
2021,04,15,13,14,22.20
2021,04,15,13,15,22.30
2021,04,15,13,16,22.30
2021,04,15,13,17,22.30
2021,04,15,13,18,22.40
2021,04,15,13,19,22.50
2021,04,15,13,20,22.70
2021,04,15,13,21,22.70
2021,04,15,13,22,22.70
2021,04,15,13,23,22.70
2021,04,15,13,24,22.50
2021,04,15,13,25,22.30
2021,04,15,13,26,22.10
2021,04,15,13,27,22.10
2021,04,15,13,28,22.10
2021,04,15,13,29,22.20
2021,04,15,13,30,22.30
2021,04,15,13,31,22.30
2021,04,15,13,32,22.40
2021,04,15,13,33,22.50
2021,04,15,13,34,22.50
2021,04,15,13,35,22.40
2021,04,15,13,36,22.40
2021,04,15,13,37,22.20
2021,04,15,13,38,22.10
2021,04,15,13,39,22.10
2021,04,15,13,40,22.00
2021,04,15,13,41,21.90
2021,04,15,13,42,21.80
2021,04,15,13,43,21.50
2021,04,15,13,44,21.20
2021,04,15,13,45,21.00
2021,04,15,13,46,20.90
2021,04,15,13,47,21.00
2021,04,15,13,48,21.20
2021,04,15,13,49,21.40
2021,04,15,13,50,21.60
2021,04,15,13,51,21.70
2021,04,15,13,52,21.90
2021,04,15,13,53,21.90
2021,04,15,13,54,21.90
2021,04,15,13,55,21.70
2021,04,15,13,56,21.50
2021,04,15,13,57,21.30
2021,04,15,13,58,21.30
2021,04,15,13,59,21.30
2021,04,15,14,00,21.30
2021,04,15,14,01,21.40
2021,04,15,14,02,21.60
2021,04,15,14,03,21.70
2021,04,15,14,04,21.80
2021,04,15,14,05,21.90
2021,04,15,14,06,22.10
2021,04,15,14,07,22.20
2021,04,15,14,08,22.20
2021,04,15,14,09,22.20
2021,04,15,14,10,22.10
2021,04,15,14,11,22.10
2021,04,15,14,12,22.00
2021,04,15,14,13,22.10
2021,04,15,14,14,22.20
2021,04,15,14,15,22.30
2021,04,15,14,16,22.30
2021,04,15,14,17,22.30
2021,04,15,14,18,22.30
2021,04,15,14,19,22.40
2021,04,15,14,20,22.50
2021,04,15,14,21,22.40
2021,04,15,14,22,22.40
2021,04,15,14,23,22.40
2021,04,15,14,24,22.50
2021,04,15,14,25,22.60
2021,04,15,14,26,22.60
2021,04,15,14,27,22.50
2021,04,15,14,28,22.30
2021,04,15,14,29,22.20
2021,04,15,14,30,22.20
2021,04,15,14,31,22.10
2021,04,15,14,32,22.20
2021,04,15,14,33,22.20
2021,04,15,14,34,22.20
2021,04,15,14,35,22.30
2021,04,15,14,36,22.30
2021,04,15,14,37,22.40
2021,04,15,14,38,22.40
2021,04,15,14,39,22.30
2021,04,15,14,40,22.30
2021,04,15,14,41,22.30
2021,04,15,14,42,22.40
2021,04,15,14,43,22.60
2021,04,15,14,44,22.60
2021,04,15,14,45,22.50
2021,04,15,14,46,22.40
2021,04,15,14,47,22.30
2021,04,15,14,48,22.40
2021,04,15,14,49,22.50
2021,04,15,14,50,22.70
2021,04,15,14,51,22.80
2021,04,15,14,52,22.90
2021,04,15,14,53,22.90
2021,04,15,14,54,22.80
2021,04,15,14,55,22.70
2021,04,15,14,56,22.60
2021,04,15,14,57,22.60
2021,04,15,14,58,22.70
2021,04,15,14,59,22.80
2021,04,15,15,00,22.80
2021,04,15,15,01,22.60
2021,04,15,15,02,22.60
2021,04,15,15,03,22.60
2021,04,15,15,04,22.50
2021,04,15,15,05,22.50
2021,04,15,15,06,22.40
2021,04,15,15,07,22.30
2021,04,15,15,08,22.30
2021,04,15,15,09,22.30
2021,04,15,15,10,22.40
2021,04,15,15,11,22.50
2021,04,15,15,12,22.60
2021,04,15,15,13,22.60
2021,04,15,15,14,22.60
2021,04,15,15,15,22.50
2021,04,15,15,16,22.40
2021,04,15,15,17,22.20
2021,04,15,15,18,22.10
2021,04,15,15,19,22.00
2021,04,15,15,20,22.10
2021,04,15,15,21,22.20
2021,04,15,15,22,22.30
2021,04,15,15,23,22.40
2021,04,15,15,24,22.50
2021,04,15,15,25,22.60
2021,04,15,15,26,22.60
2021,04,15,15,27,22.80
2021,04,15,15,28,22.90
2021,04,15,15,29,22.90
2021,04,15,15,30,22.90
2021,04,15,15,31,22.90
2021,04,15,15,32,22.80
2021,04,15,15,33,22.80
2021,04,15,15,34,22.80
2021,04,15,15,35,22.80
2021,04,15,15,36,22.90
2021,04,15,15,37,23.10
2021,04,15,15,38,23.10
2021,04,15,15,39,23.10
2021,04,15,15,40,23.00
2021,04,15,15,41,22.90
2021,04,15,15,42,23.00
2021,04,15,15,43,23.10
2021,04,15,15,44,23.10
2021,04,15,15,45,23.20
2021,04,15,15,46,23.30
2021,04,15,15,47,23.50
2021,04,15,15,48,23.60
2021,04,15,15,49,23.70
2021,04,15,15,50,23.70
2021,04,15,15,51,23.70
2021,04,15,15,52,23.70
2021,04,15,15,53,23.60
2021,04,15,15,54,23.50
2021,04,15,15,55,23.40
2021,04,15,15,56,23.30
2021,04,15,15,57,23.20
2021,04,15,15,58,23.00
2021,04,15,15,59,22.90
2021,04,15,16,00,22.80
2021,04,15,16,01,22.80
2021,04,15,16,02,22.80
2021,04,15,16,03,23.00
2021,04,15,16,04,23.10
2021,04,15,16,05,23.10
2021,04,15,16,06,23.10
2021,04,15,16,07,23.00
2021,04,15,16,08,22.90
2021,04,15,16,09,22.90
2021,04,15,16,10,22.90
2021,04,15,16,11,22.80
2021,04,15,16,12,22.90
2021,04,15,16,13,23.00
2021,04,15,16,14,23.10
2021,04,15,16,15,23.10
2021,04,15,16,16,23.10
2021,04,15,16,17,23.20
2021,04,15,16,18,23.10
2021,04,15,16,19,23.10
2021,04,15,16,20,23.10
2021,04,15,16,21,23.20
2021,04,15,16,22,23.30
2021,04,15,16,23,23.50
2021,04,15,16,24,23.40
2021,04,15,16,25,23.50
2021,04,15,16,26,23.60
2021,04,15,16,27,23.60
2021,04,15,16,28,23.40
2021,04,15,16,29,23.20
2021,04,15,16,30,23.10
2021,04,15,16,31,23.00
2021,04,15,16,32,23.00
2021,04,15,16,33,23.00
2021,04,15,16,34,23.00
2021,04,15,16,35,23.00
2021,04,15,16,36,23.10
2021,04,15,16,37,23.10
2021,04,15,16,38,23.10
2021,04,15,16,39,23.10
2021,04,15,16,40,23.10
2021,04,15,16,41,23.20
2021,04,15,16,42,23.30
2021,04,15,16,43,23.30
2021,04,15,16,44,23.20
2021,04,15,16,45,23.20
2021,04,15,16,46,23.20
2021,04,15,16,47,23.10
2021,04,15,16,48,23.20
2021,04,15,16,49,23.20
2021,04,15,16,50,23.30
2021,04,15,16,51,23.40
2021,04,15,16,52,23.50
2021,04,15,16,53,23.60
2021,04,15,16,54,23.70
2021,04,15,16,55,23.70
2021,04,15,16,56,23.60
2021,04,15,16,57,23.40
2021,04,15,16,58,23.20
2021,04,15,16,59,23.00
2021,04,15,17,00,23.00
2021,04,15,17,01,22.90
2021,04,15,17,02,22.90
2021,04,15,17,03,22.90
2021,04,15,17,04,22.90
2021,04,15,17,05,22.90
2021,04,15,17,06,23.00
2021,04,15,17,07,23.00
2021,04,15,17,08,23.10
2021,04,15,17,09,23.20
2021,04,15,17,10,23.20
2021,04,15,17,11,23.20
2021,04,15,17,12,23.10
2021,04,15,17,13,23.00
2021,04,15,17,14,22.90
2021,04,15,17,15,22.80
2021,04,15,17,16,22.80
2021,04,15,17,17,22.80
2021,04,15,17,18,22.80
2021,04,15,17,19,22.70
2021,04,15,17,20,22.70
2021,04,15,17,21,22.70
2021,04,15,17,22,22.80
2021,04,15,17,23,22.80
2021,04,15,17,24,22.90
2021,04,15,17,25,22.90
2021,04,15,17,26,22.90
2021,04,15,17,27,23.00
2021,04,15,17,28,23.10
2021,04,15,17,29,23.00
2021,04,15,17,30,22.80
2021,04,15,17,31,22.70
2021,04,15,17,32,22.60
2021,04,15,17,33,22.50
2021,04,15,17,34,22.50
2021,04,15,17,35,22.40
2021,04,15,17,36,22.50
2021,04,15,17,37,22.50
2021,04,15,17,38,22.60
2021,04,15,17,39,22.60
2021,04,15,17,40,22.80
2021,04,15,17,41,22.80
2021,04,15,17,42,22.90
2021,04,15,17,43,22.90
2021,04,15,17,44,23.00
2021,04,15,17,45,22.90
2021,04,15,17,46,22.90
2021,04,15,17,47,22.90
2021,04,15,17,48,22.80
2021,04,15,17,49,22.80
2021,04,15,17,50,22.80
2021,04,15,17,51,22.70
2021,04,15,17,52,22.70
2021,04,15,17,53,22.60
2021,04,15,17,54,22.50
2021,04,15,17,55,22.40
2021,04,15,17,56,22.30
2021,04,15,17,57,22.30
2021,04,15,17,58,22.30
2021,04,15,17,59,22.30
2021,04,15,18,00,22.30
2021,04,15,18,01,22.30
2021,04,15,18,02,22.40
2021,04,15,18,03,22.40
2021,04,15,18,04,22.40
2021,04,15,18,05,22.30
2021,04,15,18,06,22.20
2021,04,15,18,07,22.20
2021,04,15,18,08,22.10
2021,04,15,18,09,22.10
2021,04,15,18,10,22.10
2021,04,15,18,11,22.10
2021,04,15,18,12,22.20
2021,04,15,18,13,22.10
2021,04,15,18,14,22.20
2021,04,15,18,15,22.20
2021,04,15,18,16,22.20
2021,04,15,18,17,22.20
2021,04,15,18,18,22.30
2021,04,15,18,19,22.30
2021,04,15,18,20,22.30
2021,04,15,18,21,22.40
2021,04,15,18,22,22.50
2021,04,15,18,23,22.60
2021,04,15,18,24,22.60
2021,04,15,18,25,22.70
2021,04,15,18,26,22.70
2021,04,15,18,27,22.80
2021,04,15,18,28,22.80
2021,04,15,18,29,22.90
2021,04,15,18,30,23.00
2021,04,15,18,31,23.10
2021,04,15,18,32,23.20
2021,04,15,18,33,23.20
2021,04,15,18,34,23.20
2021,04,15,18,35,23.30
2021,04,15,18,36,23.30
2021,04,15,18,37,23.40
2021,04,15,18,38,23.40
2021,04,15,18,39,23.40
2021,04,15,18,40,23.40
2021,04,15,18,41,23.40
2021,04,15,18,42,23.50
2021,04,15,18,43,23.50
2021,04,15,18,44,23.60
2021,04,15,18,45,23.60
2021,04,15,18,46,23.60
2021,04,15,18,47,23.60
2021,04,15,18,48,23.40
2021,04,15,18,49,23.30
2021,04,15,18,50,23.20
2021,04,15,18,51,23.10
2021,04,15,18,52,23.00
2021,04,15,18,53,22.80
2021,04,15,18,54,22.70
2021,04,15,18,55,22.60
2021,04,15,18,56,22.50
2021,04,15,18,57,22.40
2021,04,15,18,58,22.40
2021,04,15,18,59,22.40
2021,04,15,19,00,22.30
2021,04,15,19,01,22.30
2021,04,15,19,02,22.20
2021,04,15,19,03,22.20
2021,04,15,19,04,22.10
2021,04,15,19,05,22.10
2021,04,15,19,06,22.00
2021,04,15,19,07,21.90
2021,04,15,19,08,21.90
2021,04,15,19,09,21.80
2021,04,15,19,10,21.80
2021,04,15,19,11,21.70
2021,04,15,19,12,21.70
2021,04,15,19,13,21.60
2021,04,15,19,14,21.50
2021,04,15,19,15,21.50
2021,04,15,19,16,21.40
2021,04,15,19,17,21.30
2021,04,15,19,18,21.30
2021,04,15,19,19,21.20
2021,04,15,19,20,21.20
2021,04,15,19,21,21.10
2021,04,15,19,22,21.00
2021,04,15,19,23,21.00
2021,04,15,19,24,20.90
2021,04,15,19,25,20.90
2021,04,15,19,26,20.80
2021,04,15,19,27,20.80
2021,04,15,19,28,20.70
2021,04,15,19,29,20.60
2021,04,15,19,30,20.40
2021,04,15,19,31,20.20
2021,04,15,19,32,19.90
2021,04,15,19,33,19.70